Time,TemperatureF,DewpointF,PressureIn,WindDirection,WindDirectionDegrees,WindSpeedMPH,WindSpeedGustMPH,Humidity,HourlyPrecipIn,Conditions,Clouds,dailyrainin,SoftwareType,DateUTC
2013-08-27 00:01:00,51.0,48.0,25.69,SE,135,1.4,3.0,89,0.00,,,0.00,Rainwise IP-100,2013-08-27 07:01:00,
2013-08-27 00:06:00,51.1,48.0,25.70,SE,135,0.0,3.0,89,0.00,,,0.00,Rainwise IP-100,2013-08-27 07:06:00,
2013-08-27 00:11:00,51.1,47.0,25.70,SE,135,1.9,8.0,88,0.00,,,0.00,Rainwise IP-100,2013-08-27 07:11:00,
2013-08-27 00:16:00,51.2,47.0,25.70,NE,45,0.0,3.0,88,0.00,,,0.00,Rainwise IP-100,2013-08-27 07:16:00,
2013-08-27 00:21:00,51.1,47.0,25.70,SE,135,4.9,5.0,88,0.00,,,0.00,Rainwise IP-100,2013-08-27 07:21:00,
2013-08-27 00:26:00,51.1,48.0,25.70,SE,135,2.8,9.0,89,0.00,,,0.00,Rainwise IP-100,2013-08-27 07:26:00,
2013-08-27 00:31:00,51.0,48.0,25.70,South,180,0.0,4.0,89,0.00,,,0.00,Rainwise IP-100,2013-08-27 07:31:00,
2013-08-27 00:36:00,51.0,48.0,25.70,SSE,157,2.1,4.0,89,0.00,,,0.00,Rainwise IP-100,2013-08-27 07:36:00,
2013-08-27 00:41:00,51.0,48.0,25.70,SE,135,4.9,5.0,89,0.00,,,0.00,Rainwise IP-100,2013-08-27 07:41:00,
2013-08-27 00:46:00,51.1,48.0,25.70,SSE,157,2.6,4.0,89,0.00,,,0.00,Rainwise IP-100,2013-08-27 07:46:00,
2013-08-27 00:51:00,51.1,48.0,25.69,SSW,202,2.8,5.0,89,0.00,,,0.00,Rainwise IP-100,2013-08-27 07:51:00,
2013-08-27 00:56:00,51.0,48.0,25.69,SE,135,2.8,6.0,90,0.00,,,0.00,Rainwise IP-100,2013-08-27 07:56:00,
2013-08-27 01:01:00,51.1,48.0,25.70,SSE,157,1.6,7.0,89,0.00,,,0.00,Rainwise IP-100,2013-08-27 08:01:00,
2013-08-27 01:06:00,51.1,48.0,25.69,ESE,112,2.6,6.0,89,0.00,,,0.00,Rainwise IP-100,2013-08-27 08:06:00,
2013-08-27 01:11:00,50.9,48.0,25.69,ESE,112,0.0,3.0,90,0.06,,,0.01,Rainwise IP-100,2013-08-27 08:11:00,
2013-08-27 01:16:00,50.6,48.0,25.69,ESE,112,0.0,4.0,91,0.06,,,0.01,Rainwise IP-100,2013-08-27 08:16:00,
2013-08-27 01:21:00,50.4,48.0,25.68,ESE,112,0.0,2.0,92,0.00,,,0.01,Rainwise IP-100,2013-08-27 08:21:00,
2013-08-27 01:26:00,50.2,47.0,25.69,SE,135,2.1,4.0,93,0.00,,,0.01,Rainwise IP-100,2013-08-27 08:26:00,
2013-08-27 01:31:00,50.1,47.0,25.69,SE,135,2.8,4.0,93,0.00,,,0.01,Rainwise IP-100,2013-08-27 08:31:00,
2013-08-27 01:36:00,50.1,47.0,25.69,ESE,112,0.0,4.0,93,0.00,,,0.01,Rainwise IP-100,2013-08-27 08:36:00,
2013-08-27 01:41:00,50.1,48.0,25.69,SE,135,0.0,3.0,94,0.06,,,0.02,Rainwise IP-100,2013-08-27 08:41:00,
2013-08-27 01:46:00,50.1,48.0,25.69,ESE,112,0.0,3.0,94,0.06,,,0.02,Rainwise IP-100,2013-08-27 08:46:00,
2013-08-27 01:51:00,50.1,48.0,25.68,ESE,112,0.0,2.0,95,0.00,,,0.02,Rainwise IP-100,2013-08-27 08:51:00,
2013-08-27 01:56:00,50.0,48.0,25.68,ESE,112,2.1,2.1,95,0.00,,,0.02,Rainwise IP-100,2013-08-27 08:56:00,
2013-08-27 02:01:00,49.9,48.0,25.68,SE,135,0.0,4.0,95,0.00,,,0.02,Rainwise IP-100,2013-08-27 09:01:00,
2013-08-27 02:06:00,49.8,48.0,25.68,ESE,112,1.4,3.0,95,0.00,,,0.02,Rainwise IP-100,2013-08-27 09:06:00,
2013-08-27 02:11:00,49.8,48.0,25.68,ESE,112,0.0,3.0,95,0.00,,,0.02,Rainwise IP-100,2013-08-27 09:11:00,
2013-08-27 02:16:00,49.9,48.0,25.68,SSE,157,1.2,3.0,94,0.00,,,0.02,Rainwise IP-100,2013-08-27 09:16:00,
2013-08-27 02:21:00,50.1,48.0,25.68,SE,135,2.3,3.0,94,0.00,,,0.02,Rainwise IP-100,2013-08-27 09:21:00,
2013-08-27 02:26:00,50.3,47.0,25.68,SSE,157,0.0,4.0,93,0.00,,,0.02,Rainwise IP-100,2013-08-27 09:26:00,
2013-08-27 02:31:00,50.6,48.0,25.68,SSE,157,0.0,7.0,93,0.00,,,0.02,Rainwise IP-100,2013-08-27 09:31:00,
2013-08-27 02:36:00,50.8,48.0,25.68,SE,135,2.1,5.0,92,0.00,,,0.02,Rainwise IP-100,2013-08-27 09:36:00,
2013-08-27 02:41:00,50.9,49.0,25.67,SE,135,0.0,8.0,92,0.00,,,0.02,Rainwise IP-100,2013-08-27 09:41:00,
2013-08-27 02:46:00,50.8,48.0,25.67,South,180,0.0,2.0,92,0.00,,,0.02,Rainwise IP-100,2013-08-27 09:46:00,
2013-08-27 02:51:00,50.7,48.0,25.68,SSW,202,1.4,1.4,93,0.00,,,0.02,Rainwise IP-100,2013-08-27 09:51:00,
2013-08-27 02:56:00,50.5,49.0,25.68,ESE,112,0.0,3.0,94,0.00,,,0.02,Rainwise IP-100,2013-08-27 09:56:00,
2013-08-27 03:01:00,50.5,49.0,25.67,SE,135,2.8,3.0,94,0.00,,,0.02,Rainwise IP-100,2013-08-27 10:01:00,
2013-08-27 03:06:00,50.6,49.0,25.67,SE,135,0.0,4.0,94,0.00,,,0.02,Rainwise IP-100,2013-08-27 10:06:00,
2013-08-27 03:11:00,50.6,48.0,25.68,SSW,202,2.8,7.0,93,0.00,,,0.02,Rainwise IP-100,2013-08-27 10:11:00,
2013-08-27 03:16:00,50.7,48.0,25.68,SE,135,1.2,3.0,93,0.00,,,0.02,Rainwise IP-100,2013-08-27 10:16:00,
2013-08-27 03:21:00,50.7,48.0,25.68,ESE,112,0.0,2.0,93,0.00,,,0.02,Rainwise IP-100,2013-08-27 10:21:00,
2013-08-27 03:26:00,50.7,49.0,25.68,NE,45,0.0,2.0,94,0.00,,,0.02,Rainwise IP-100,2013-08-27 10:26:00,
2013-08-27 03:31:00,50.6,49.0,25.68,NE,45,0.0,0.0,94,0.00,,,0.02,Rainwise IP-100,2013-08-27 10:31:00,
2013-08-27 03:36:00,50.4,49.0,25.67,NNW,337,0.0,0.0,95,0.00,,,0.02,Rainwise IP-100,2013-08-27 10:36:00,
2013-08-27 03:41:00,50.1,48.0,25.67,NNW,337,0.0,0.0,95,0.00,,,0.02,Rainwise IP-100,2013-08-27 10:41:00,
2013-08-27 03:46:00,50.0,49.0,25.67,SW,225,0.0,3.0,96,0.00,,,0.02,Rainwise IP-100,2013-08-27 10:46:00,
2013-08-27 03:51:00,50.0,49.0,25.67,SW,225,0.0,1.0,96,0.00,,,0.02,Rainwise IP-100,2013-08-27 10:51:00,
2013-08-27 03:56:00,50.0,49.0,25.68,SW,225,0.0,1.0,97,0.00,,,0.02,Rainwise IP-100,2013-08-27 10:56:00,
2013-08-27 04:01:00,50.0,49.0,25.67,SW,225,0.0,1.0,97,0.06,,,0.03,Rainwise IP-100,2013-08-27 11:01:00,
2013-08-27 04:06:00,49.9,49.0,25.68,NNW,337,2.8,3.0,97,0.06,,,0.03,Rainwise IP-100,2013-08-27 11:06:00,
2013-08-27 04:11:00,49.8,49.0,25.68,NNW,337,1.6,5.0,97,0.00,,,0.03,Rainwise IP-100,2013-08-27 11:11:00,
2013-08-27 04:16:00,49.5,49.0,25.68,NNW,337,0.0,3.0,97,0.00,,,0.03,Rainwise IP-100,2013-08-27 11:16:00,
2013-08-27 04:21:00,49.3,48.0,25.68,NNW,337,0.0,0.0,97,0.00,,,0.03,Rainwise IP-100,2013-08-27 11:21:00,
2013-08-27 04:26:00,49.2,48.0,25.67,NNW,337,0.0,0.0,98,0.00,,,0.03,Rainwise IP-100,2013-08-27 11:26:00,
2013-08-27 04:31:00,49.2,48.0,25.67,NNW,337,0.0,0.0,98,0.00,,,0.03,Rainwise IP-100,2013-08-27 11:31:00,
2013-08-27 04:36:00,49.2,48.0,25.67,NNW,337,0.0,0.0,98,0.06,,,0.04,Rainwise IP-100,2013-08-27 11:36:00,
2013-08-27 04:41:00,49.1,48.0,25.66,NNW,337,0.0,0.0,98,0.06,,,0.04,Rainwise IP-100,2013-08-27 11:41:00,
2013-08-27 04:46:00,49.1,48.0,25.67,NNW,337,0.0,0.0,98,0.00,,,0.04,Rainwise IP-100,2013-08-27 11:46:00,
2013-08-27 04:51:00,49.0,48.0,25.67,SE,135,2.6,2.6,98,0.00,,,0.04,Rainwise IP-100,2013-08-27 11:51:00,
2013-08-27 04:56:00,49.4,49.0,25.67,ESE,112,0.0,4.0,99,0.00,,,0.04,Rainwise IP-100,2013-08-27 11:56:00,
2013-08-27 05:01:00,50.1,49.0,25.67,East,90,0.0,4.0,98,0.00,,,0.04,Rainwise IP-100,2013-08-27 12:01:00,
2013-08-27 05:06:00,50.3,49.0,25.67,SE,135,0.0,2.0,98,0.06,,,0.05,Rainwise IP-100,2013-08-27 12:06:00,
2013-08-27 05:11:00,50.1,49.0,25.67,SE,135,1.9,1.9,98,0.06,,,0.05,Rainwise IP-100,2013-08-27 12:11:00,
2013-08-27 05:16:00,50.0,49.0,25.67,SE,135,1.4,2.0,98,0.00,,,0.05,Rainwise IP-100,2013-08-27 12:16:00,
2013-08-27 05:21:00,49.9,49.0,25.66,SE,135,1.6,4.0,98,0.00,,,0.05,Rainwise IP-100,2013-08-27 12:21:00,
2013-08-27 05:26:00,49.9,49.0,25.67,SE,135,1.9,3.0,98,0.00,,,0.05,Rainwise IP-100,2013-08-27 12:26:00,
2013-08-27 05:31:00,49.8,49.0,25.67,SE,135,1.6,2.0,98,0.00,,,0.05,Rainwise IP-100,2013-08-27 12:31:00,
2013-08-27 05:36:00,49.8,49.0,25.67,SE,135,0.0,3.0,98,0.00,,,0.05,Rainwise IP-100,2013-08-27 12:36:00,
2013-08-27 05:41:00,49.9,49.0,25.66,SE,135,1.2,3.0,98,0.00,,,0.05,Rainwise IP-100,2013-08-27 12:41:00,
2013-08-27 05:46:00,50.0,49.0,25.66,SE,135,0.0,3.0,98,0.00,,,0.05,Rainwise IP-100,2013-08-27 12:46:00,
2013-08-27 05:51:00,50.2,49.0,25.67,ESE,112,1.4,3.0,98,0.00,,,0.05,Rainwise IP-100,2013-08-27 12:51:00,
2013-08-27 05:56:00,50.3,49.0,25.67,SE,135,4.2,4.2,98,0.00,,,0.05,Rainwise IP-100,2013-08-27 12:56:00,
2013-08-27 06:01:00,50.4,50.0,25.66,SE,135,2.1,4.0,97,0.00,,,0.05,Rainwise IP-100,2013-08-27 13:01:00,
2013-08-27 06:06:00,50.6,50.0,25.67,ESE,112,1.9,3.0,96,0.00,,,0.05,Rainwise IP-100,2013-08-27 13:06:00,
2013-08-27 06:11:00,50.7,50.0,25.67,SSE,157,1.6,5.0,96,0.00,,,0.05,Rainwise IP-100,2013-08-27 13:11:00,
2013-08-27 06:16:00,51.0,50.0,25.67,SE,135,0.0,4.0,95,0.00,,,0.05,Rainwise IP-100,2013-08-27 13:16:00,
2013-08-27 06:21:00,51.0,50.0,25.67,ESE,112,0.0,3.0,95,0.00,,,0.05,Rainwise IP-100,2013-08-27 13:21:00,
2013-08-27 06:26:00,50.8,49.0,25.67,SE,135,0.0,4.0,95,0.00,,,0.05,Rainwise IP-100,2013-08-27 13:26:00,
2013-08-27 06:31:00,50.7,49.0,25.67,SE,135,2.6,3.0,95,0.00,,,0.05,Rainwise IP-100,2013-08-27 13:31:00,
2013-08-27 06:36:00,50.6,49.0,25.68,SE,135,0.0,2.0,95,0.00,,,0.05,Rainwise IP-100,2013-08-27 13:36:00,
2013-08-27 06:41:00,50.4,49.0,25.67,SE,135,1.2,1.2,95,0.00,,,0.05,Rainwise IP-100,2013-08-27 13:41:00,
2013-08-27 06:46:00,50.2,49.0,25.68,SE,135,0.0,1.0,96,0.00,,,0.05,Rainwise IP-100,2013-08-27 13:46:00,
2013-08-27 06:51:00,50.1,49.0,25.68,WSW,247,0.0,1.0,96,0.00,,,0.05,Rainwise IP-100,2013-08-27 13:51:00,
2013-08-27 06:56:00,50.1,49.0,25.67,ESE,112,0.0,2.0,97,0.00,,,0.05,Rainwise IP-100,2013-08-27 13:56:00,
2013-08-27 07:01:00,50.3,49.0,25.68,SE,135,0.0,4.0,96,0.00,,,0.05,Rainwise IP-100,2013-08-27 14:01:00,
2013-08-27 07:06:00,50.8,50.0,25.68,ESE,112,3.0,4.0,96,0.00,,,0.05,Rainwise IP-100,2013-08-27 14:06:00,
2013-08-27 07:11:00,51.4,50.0,25.68,SE,135,3.3,4.0,94,0.00,,,0.05,Rainwise IP-100,2013-08-27 14:11:00,
2013-08-27 07:16:00,51.7,50.0,25.68,SE,135,3.3,4.0,93,0.00,,,0.05,Rainwise IP-100,2013-08-27 14:16:00,
2013-08-27 07:21:00,51.9,50.0,25.68,SSE,157,1.6,5.0,92,0.00,,,0.05,Rainwise IP-100,2013-08-27 14:21:00,
2013-08-27 07:26:00,52.0,50.0,25.68,East,90,0.0,3.0,92,0.00,,,0.05,Rainwise IP-100,2013-08-27 14:26:00,
2013-08-27 07:31:00,52.0,50.0,25.68,SE,135,3.3,4.0,93,0.00,,,0.05,Rainwise IP-100,2013-08-27 14:31:00,
2013-08-27 07:36:00,52.1,50.0,25.68,ESE,112,2.1,3.0,92,0.00,,,0.05,Rainwise IP-100,2013-08-27 14:36:00,
2013-08-27 07:41:00,52.2,50.0,25.67,SE,135,0.0,3.0,92,0.00,,,0.05,Rainwise IP-100,2013-08-27 14:41:00,
2013-08-27 07:46:00,52.4,50.0,25.68,WSW,247,3.5,3.5,92,0.00,,,0.05,Rainwise IP-100,2013-08-27 14:46:00,
2013-08-27 07:51:00,52.6,50.0,25.68,SSW,202,0.0,4.0,91,0.00,,,0.05,Rainwise IP-100,2013-08-27 14:51:00,
2013-08-27 07:56:00,52.8,50.0,25.68,ENE,67,0.0,4.0,90,0.00,,,0.05,Rainwise IP-100,2013-08-27 14:56:00,
2013-08-27 08:01:00,52.7,50.0,25.68,SE,135,2.6,3.0,90,0.00,,,0.05,Rainwise IP-100,2013-08-27 15:01:00,
2013-08-27 08:06:00,52.6,50.0,25.68,ESE,112,1.2,2.0,91,0.00,,,0.05,Rainwise IP-100,2013-08-27 15:06:00,
2013-08-27 08:11:00,52.4,49.0,25.68,ESE,112,1.2,3.0,91,0.00,,,0.05,Rainwise IP-100,2013-08-27 15:11:00,
2013-08-27 08:16:00,52.3,49.0,25.69,SE,135,3.0,3.0,91,0.00,,,0.05,Rainwise IP-100,2013-08-27 15:16:00,
2013-08-27 08:21:00,52.5,50.0,25.68,SSE,157,0.0,3.0,91,0.00,,,0.05,Rainwise IP-100,2013-08-27 15:21:00,
2013-08-27 08:26:00,52.7,50.0,25.69,ESE,112,2.6,4.0,90,0.00,,,0.05,Rainwise IP-100,2013-08-27 15:26:00,
2013-08-27 08:31:00,53.0,50.0,25.69,SSE,157,0.0,4.0,90,0.00,,,0.05,Rainwise IP-100,2013-08-27 15:31:00,
2013-08-27 08:36:00,53.2,50.0,25.69,SE,135,1.9,3.0,90,0.00,,,0.05,Rainwise IP-100,2013-08-27 15:36:00,
2013-08-27 08:41:00,53.2,50.0,25.69,SE,135,2.6,5.0,90,0.00,,,0.05,Rainwise IP-100,2013-08-27 15:41:00,
2013-08-27 08:46:00,53.3,50.0,25.69,SE,135,1.4,3.0,90,0.00,,,0.05,Rainwise IP-100,2013-08-27 15:46:00,
2013-08-27 08:51:00,53.6,50.0,25.69,SE,135,2.1,3.0,89,0.00,,,0.05,Rainwise IP-100,2013-08-27 15:51:00,
2013-08-27 08:56:00,53.9,50.0,25.69,ESE,112,0.0,3.0,89,0.00,,,0.05,Rainwise IP-100,2013-08-27 15:56:00,
2013-08-27 09:01:00,54.1,50.0,25.69,SE,135,2.8,3.0,88,0.00,,,0.05,Rainwise IP-100,2013-08-27 16:01:00,
2013-08-27 09:06:00,54.1,50.0,25.69,South,180,0.0,4.0,88,0.00,,,0.05,Rainwise IP-100,2013-08-27 16:06:00,
2013-08-27 09:11:00,54.2,50.0,25.69,SE,135,1.4,3.0,87,0.00,,,0.05,Rainwise IP-100,2013-08-27 16:11:00,
2013-08-27 09:16:00,54.2,50.0,25.69,SSW,202,3.7,3.7,87,0.00,,,0.05,Rainwise IP-100,2013-08-27 16:16:00,
2013-08-27 09:21:00,54.3,50.0,25.69,ESE,112,1.6,4.0,87,0.00,,,0.05,Rainwise IP-100,2013-08-27 16:21:00,
2013-08-27 09:26:00,54.3,50.0,25.69,ESE,112,3.0,3.0,87,0.00,,,0.05,Rainwise IP-100,2013-08-27 16:26:00,
2013-08-27 09:31:00,54.4,50.0,25.69,SE,135,1.4,3.0,87,0.00,,,0.05,Rainwise IP-100,2013-08-27 16:31:00,
2013-08-27 09:36:00,54.5,50.0,25.69,SE,135,1.2,3.0,86,0.00,,,0.05,Rainwise IP-100,2013-08-27 16:36:00,
2013-08-27 09:41:00,54.5,50.0,25.69,ESE,112,2.1,4.0,86,0.00,,,0.05,Rainwise IP-100,2013-08-27 16:41:00,
2013-08-27 09:46:00,54.5,50.0,25.69,SE,135,2.8,3.0,86,0.00,,,0.05,Rainwise IP-100,2013-08-27 16:46:00,
2013-08-27 09:51:00,54.6,50.0,25.69,SE,135,2.1,3.0,86,0.00,,,0.05,Rainwise IP-100,2013-08-27 16:51:00,
2013-08-27 09:56:00,54.9,51.0,25.69,ESE,112,0.0,2.0,87,0.00,,,0.05,Rainwise IP-100,2013-08-27 16:56:00,
2013-08-27 10:01:00,55.1,51.0,25.68,SE,135,0.0,2.0,87,0.00,,,0.05,Rainwise IP-100,2013-08-27 17:01:00,
2013-08-27 10:06:00,55.3,51.0,25.69,SE,135,0.0,2.0,86,0.00,,,0.05,Rainwise IP-100,2013-08-27 17:06:00,
2013-08-27 10:11:00,55.5,51.0,25.68,SE,135,1.2,3.0,85,0.00,,,0.05,Rainwise IP-100,2013-08-27 17:11:00,
2013-08-27 10:16:00,55.7,51.0,25.69,ESE,112,2.3,4.0,84,0.00,,,0.05,Rainwise IP-100,2013-08-27 17:16:00,
2013-08-27 10:21:00,55.8,51.0,25.69,SE,135,1.2,4.0,84,0.00,,,0.05,Rainwise IP-100,2013-08-27 17:21:00,
2013-08-27 10:26:00,56.0,51.0,25.68,ESE,112,0.0,3.0,84,0.00,,,0.05,Rainwise IP-100,2013-08-27 17:26:00,
2013-08-27 10:31:00,56.2,51.0,25.69,SE,135,0.0,2.0,84,0.00,,,0.05,Rainwise IP-100,2013-08-27 17:31:00,
2013-08-27 10:36:00,56.4,51.0,25.69,SE,135,0.0,3.0,83,0.00,,,0.05,Rainwise IP-100,2013-08-27 17:36:00,
2013-08-27 10:41:00,56.9,52.0,25.69,SW,225,2.3,3.0,82,0.00,,,0.05,Rainwise IP-100,2013-08-27 17:41:00,
2013-08-27 10:46:00,57.5,51.0,25.69,SSE,157,1.4,4.0,80,0.00,,,0.05,Rainwise IP-100,2013-08-27 17:46:00,
2013-08-27 10:51:00,57.9,51.0,25.69,SSW,202,1.6,7.0,78,0.00,,,0.05,Rainwise IP-100,2013-08-27 17:51:00,
2013-08-27 10:56:00,58.0,51.0,25.69,SSW,202,1.2,7.0,77,0.00,,,0.05,Rainwise IP-100,2013-08-27 17:56:00,
2013-08-27 11:01:00,58.1,51.0,25.69,SE,135,1.4,4.0,77,0.00,,,0.05,Rainwise IP-100,2013-08-27 18:01:00,
2013-08-27 11:06:00,58.2,51.0,25.69,ESE,112,2.1,2.1,77,0.00,,,0.05,Rainwise IP-100,2013-08-27 18:06:00,
2013-08-27 11:11:00,58.5,52.0,25.68,ENE,67,0.0,5.0,77,0.00,,,0.05,Rainwise IP-100,2013-08-27 18:11:00,
2013-08-27 11:16:00,58.5,51.0,25.68,SE,135,2.8,3.0,76,0.00,,,0.05,Rainwise IP-100,2013-08-27 18:16:00,
2013-08-27 11:21:00,58.4,50.0,25.69,SE,135,0.0,3.0,76,0.00,,,0.05,Rainwise IP-100,2013-08-27 18:21:00,
2013-08-27 11:26:00,58.4,50.0,25.68,SSE,157,0.0,5.0,75,0.00,,,0.05,Rainwise IP-100,2013-08-27 18:26:00,
2013-08-27 11:31:00,58.4,50.0,25.68,SSE,157,3.3,5.0,75,0.00,,,0.05,Rainwise IP-100,2013-08-27 18:31:00,
2013-08-27 11:36:00,58.4,50.0,25.68,SSW,202,2.3,6.0,75,0.00,,,0.05,Rainwise IP-100,2013-08-27 18:36:00,
2013-08-27 11:41:00,58.4,50.0,25.68,SSW,202,3.7,6.0,74,0.00,,,0.05,Rainwise IP-100,2013-08-27 18:41:00,
2013-08-27 11:46:00,58.5,50.0,25.68,SSW,202,1.2,4.0,73,0.00,,,0.05,Rainwise IP-100,2013-08-27 18:46:00,
2013-08-27 11:51:00,58.8,50.0,25.68,SSW,202,0.0,5.0,73,0.00,,,0.05,Rainwise IP-100,2013-08-27 18:51:00,
2013-08-27 11:56:00,59.1,50.0,25.68,SSW,202,1.4,4.0,73,0.00,,,0.05,Rainwise IP-100,2013-08-27 18:56:00,
2013-08-27 12:01:00,59.3,50.0,25.67,SSW,202,1.2,4.0,72,0.00,,,0.05,Rainwise IP-100,2013-08-27 19:01:00,
2013-08-27 12:06:00,59.5,50.0,25.67,SSE,157,0.0,2.0,72,0.00,,,0.05,Rainwise IP-100,2013-08-27 19:06:00,
2013-08-27 12:11:00,59.7,50.0,25.67,SSE,157,0.0,4.0,72,0.00,,,0.05,Rainwise IP-100,2013-08-27 19:11:00,
2013-08-27 12:16:00,59.9,50.0,25.67,SSW,202,4.7,4.7,71,0.00,,,0.05,Rainwise IP-100,2013-08-27 19:16:00,
2013-08-27 12:21:00,60.1,50.0,25.67,SSW,202,1.2,5.0,70,0.00,,,0.05,Rainwise IP-100,2013-08-27 19:21:00,
2013-08-27 12:26:00,60.4,50.0,25.67,SE,135,1.4,7.0,70,0.00,,,0.05,Rainwise IP-100,2013-08-27 19:26:00,
2013-08-27 12:31:00,60.7,50.0,25.67,SSW,202,1.2,5.0,69,0.00,,,0.05,Rainwise IP-100,2013-08-27 19:31:00,
2013-08-27 12:36:00,60.8,50.0,25.66,SSW,202,2.1,5.0,68,0.00,,,0.05,Rainwise IP-100,2013-08-27 19:36:00,
2013-08-27 12:41:00,60.8,50.0,25.66,SSE,157,1.2,3.0,68,0.00,,,0.05,Rainwise IP-100,2013-08-27 19:41:00,
2013-08-27 12:46:00,60.8,50.0,25.67,SSE,157,0.0,2.0,70,0.00,,,0.05,Rainwise IP-100,2013-08-27 19:46:00,
2013-08-27 12:51:00,61.0,52.0,25.66,ENE,67,0.0,1.0,72,0.00,,,0.05,Rainwise IP-100,2013-08-27 19:51:00,
2013-08-27 12:56:00,61.3,51.0,25.66,SSW,202,3.0,4.0,70,0.00,,,0.05,Rainwise IP-100,2013-08-27 19:56:00,
2013-08-27 13:01:00,61.2,50.0,25.66,SSW,202,3.0,6.0,67,0.00,,,0.05,Rainwise IP-100,2013-08-27 20:01:00,
2013-08-27 13:06:00,61.0,50.0,25.66,SSW,202,3.0,4.0,67,0.00,,,0.05,Rainwise IP-100,2013-08-27 20:06:00,
2013-08-27 13:11:00,61.0,50.0,25.66,SSW,202,4.2,8.0,67,0.00,,,0.05,Rainwise IP-100,2013-08-27 20:11:00,
2013-08-27 13:16:00,61.1,50.0,25.66,WSW,247,2.6,6.0,67,0.00,,,0.05,Rainwise IP-100,2013-08-27 20:16:00,
2013-08-27 13:21:00,61.4,50.0,25.66,NNW,337,0.0,3.0,67,0.00,,,0.05,Rainwise IP-100,2013-08-27 20:21:00,
2013-08-27 13:26:00,61.8,50.0,25.65,SW,225,3.0,6.0,68,0.00,,,0.05,Rainwise IP-100,2013-08-27 20:26:00,
2013-08-27 13:31:00,61.9,51.0,25.66,SW,225,3.5,5.0,67,0.00,,,0.05,Rainwise IP-100,2013-08-27 20:31:00,
2013-08-27 13:36:00,61.8,50.0,25.65,SSW,202,2.6,4.0,67,0.00,,,0.05,Rainwise IP-100,2013-08-27 20:36:00,
2013-08-27 13:41:00,62.0,51.0,25.65,WSW,247,0.0,3.0,67,0.00,,,0.05,Rainwise IP-100,2013-08-27 20:41:00,
2013-08-27 13:46:00,62.1,50.0,25.65,SSW,202,1.2,4.0,66,0.00,,,0.05,Rainwise IP-100,2013-08-27 20:46:00,
2013-08-27 13:51:00,62.2,50.0,25.65,SW,225,3.0,5.0,66,0.00,,,0.05,Rainwise IP-100,2013-08-27 20:51:00,
2013-08-27 13:56:00,62.3,50.0,25.65,SW,225,0.0,4.0,66,0.00,,,0.05,Rainwise IP-100,2013-08-27 20:56:00,
2013-08-27 14:01:00,62.6,51.0,25.65,WSW,247,2.8,3.0,66,0.00,,,0.05,Rainwise IP-100,2013-08-27 21:01:00,
2013-08-27 14:06:00,62.9,51.0,25.66,SW,225,4.2,5.0,66,0.00,,,0.05,Rainwise IP-100,2013-08-27 21:06:00,
2013-08-27 14:11:00,62.8,51.0,25.65,WSW,247,2.6,7.0,66,0.00,,,0.05,Rainwise IP-100,2013-08-27 21:11:00,
2013-08-27 14:16:00,62.6,51.0,25.65,SE,135,2.1,8.0,66,0.00,,,0.05,Rainwise IP-100,2013-08-27 21:16:00,
2013-08-27 14:21:00,62.8,50.0,25.65,SW,225,4.0,6.0,65,0.00,,,0.05,Rainwise IP-100,2013-08-27 21:21:00,
2013-08-27 14:26:00,63.1,50.0,25.65,SW,225,2.1,4.0,64,0.00,,,0.05,Rainwise IP-100,2013-08-27 21:26:00,
2013-08-27 14:31:00,63.8,51.0,25.65,SSW,202,4.7,6.0,64,0.00,,,0.05,Rainwise IP-100,2013-08-27 21:31:00,
2013-08-27 14:36:00,64.4,51.0,25.64,SW,225,3.0,6.0,63,0.00,,,0.05,Rainwise IP-100,2013-08-27 21:36:00,
2013-08-27 14:41:00,64.3,50.0,25.64,SSW,202,4.0,6.0,62,0.00,,,0.05,Rainwise IP-100,2013-08-27 21:41:00,
2013-08-27 14:46:00,64.4,51.0,25.64,SW,225,4.0,5.0,62,0.00,,,0.05,Rainwise IP-100,2013-08-27 21:46:00,
2013-08-27 14:51:00,64.8,50.0,25.63,WNW,292,4.2,5.0,61,0.00,,,0.05,Rainwise IP-100,2013-08-27 21:51:00,
2013-08-27 14:56:00,64.8,50.0,25.63,SSW,202,2.3,6.0,61,0.00,,,0.05,Rainwise IP-100,2013-08-27 21:56:00,
2013-08-27 15:01:00,64.9,51.0,25.63,SSW,202,0.0,3.0,62,0.00,,,0.05,Rainwise IP-100,2013-08-27 22:01:00,
2013-08-27 15:06:00,65.2,51.0,25.63,ESE,112,0.0,2.0,62,0.00,,,0.05,Rainwise IP-100,2013-08-27 22:06:00,
2013-08-27 15:11:00,65.3,50.0,25.63,SSW,202,4.2,5.0,60,0.00,,,0.05,Rainwise IP-100,2013-08-27 22:11:00,
2013-08-27 15:16:00,65.1,50.0,25.63,SSW,202,1.9,5.0,60,0.00,,,0.05,Rainwise IP-100,2013-08-27 22:16:00,
2013-08-27 15:21:00,65.2,50.0,25.63,SSW,202,3.0,3.0,59,0.00,,,0.05,Rainwise IP-100,2013-08-27 22:21:00,
2013-08-27 15:26:00,65.1,50.0,25.63,SSW,202,0.0,5.0,59,0.00,,,0.05,Rainwise IP-100,2013-08-27 22:26:00,
2013-08-27 15:31:00,64.9,50.0,25.63,ESE,112,1.6,4.0,60,0.00,,,0.05,Rainwise IP-100,2013-08-27 22:31:00,
2013-08-27 15:36:00,65.3,50.0,25.62,WSW,247,2.8,5.0,60,0.00,,,0.05,Rainwise IP-100,2013-08-27 22:36:00,
2013-08-27 15:41:00,65.6,50.0,25.63,SSW,202,4.7,7.0,59,0.00,,,0.05,Rainwise IP-100,2013-08-27 22:41:00,
2013-08-27 15:46:00,65.7,50.0,25.63,WSW,247,2.1,6.0,58,0.00,,,0.05,Rainwise IP-100,2013-08-27 22:46:00,
2013-08-27 15:51:00,66.1,50.0,25.63,North,360,3.3,6.0,58,0.00,,,0.05,Rainwise IP-100,2013-08-27 22:51:00,
2013-08-27 15:56:00,66.5,51.0,25.62,NNE,22,0.0,4.0,58,0.00,,,0.05,Rainwise IP-100,2013-08-27 22:56:00,
2013-08-27 16:01:00,66.3,50.0,25.63,SW,225,2.6,6.0,57,0.00,,,0.05,Rainwise IP-100,2013-08-27 23:01:00,
2013-08-27 16:06:00,66.0,50.0,25.63,ESE,112,0.0,5.0,58,0.00,,,0.05,Rainwise IP-100,2013-08-27 23:06:00,
2013-08-27 16:11:00,66.2,51.0,25.62,SE,135,1.6,3.0,58,0.00,,,0.05,Rainwise IP-100,2013-08-27 23:11:00,
2013-08-27 16:16:00,66.2,50.0,25.63,SSE,157,1.4,5.0,57,0.00,,,0.05,Rainwise IP-100,2013-08-27 23:16:00,
2013-08-27 16:21:00,66.4,50.0,25.62,SSW,202,0.0,6.0,57,0.00,,,0.05,Rainwise IP-100,2013-08-27 23:21:00,
2013-08-27 16:26:00,66.7,50.0,25.62,ESE,112,0.0,4.0,55,0.00,,,0.05,Rainwise IP-100,2013-08-27 23:26:00,
2013-08-27 16:31:00,66.7,50.0,25.63,East,90,0.0,4.0,55,0.00,,,0.05,Rainwise IP-100,2013-08-27 23:31:00,
2013-08-27 16:36:00,66.6,50.0,25.62,ESE,112,0.0,1.0,56,0.00,,,0.05,Rainwise IP-100,2013-08-27 23:36:00,
2013-08-27 16:41:00,66.7,50.0,25.62,ESE,112,0.0,1.0,56,0.00,,,0.05,Rainwise IP-100,2013-08-27 23:41:00,
2013-08-27 16:46:00,66.6,51.0,25.62,SSW,202,0.0,4.0,57,0.00,,,0.05,Rainwise IP-100,2013-08-27 23:46:00,
2013-08-27 16:51:00,66.6,51.0,25.62,NNW,337,3.3,4.0,57,0.00,,,0.05,Rainwise IP-100,2013-08-27 23:51:00,
2013-08-27 16:56:00,66.8,51.0,25.62,ESE,112,1.2,3.0,57,0.00,,,0.05,Rainwise IP-100,2013-08-27 23:56:00,
2013-08-27 17:01:00,66.6,50.0,25.63,SE,135,0.0,4.0,56,0.00,,,0.05,Rainwise IP-100,2013-08-28 00:01:00,
2013-08-27 17:06:00,66.6,51.0,25.63,NNE,22,5.1,9.0,58,0.00,,,0.05,Rainwise IP-100,2013-08-28 00:06:00,
2013-08-27 17:11:00,66.4,53.0,25.63,NNW,337,0.0,7.0,63,0.00,,,0.05,Rainwise IP-100,2013-08-28 00:11:00,
2013-08-27 17:16:00,65.5,54.0,25.62,NNE,22,2.8,7.0,68,0.00,,,0.05,Rainwise IP-100,2013-08-28 00:16:00,
2013-08-27 17:21:00,64.7,54.0,25.63,NNE,22,4.9,7.0,70,0.00,,,0.05,Rainwise IP-100,2013-08-28 00:21:00,
2013-08-27 17:26:00,63.9,55.0,25.62,NNW,337,6.8,8.0,73,0.00,,,0.05,Rainwise IP-100,2013-08-28 00:26:00,
2013-08-27 17:31:00,63.2,55.0,25.62,NNE,22,2.6,8.0,75,0.00,,,0.05,Rainwise IP-100,2013-08-28 00:31:00,
2013-08-27 17:36:00,62.5,54.0,25.62,North,360,3.0,7.0,76,0.00,,,0.05,Rainwise IP-100,2013-08-28 00:36:00,
2013-08-27 17:41:00,62.1,54.0,25.63,North,360,1.4,6.0,77,0.00,,,0.05,Rainwise IP-100,2013-08-28 00:41:00,
2013-08-27 17:46:00,61.5,54.0,25.63,ESE,112,0.0,7.0,79,0.00,,,0.05,Rainwise IP-100,2013-08-28 00:46:00,
2013-08-27 17:51:00,61.1,54.0,25.63,North,360,0.0,5.0,80,0.00,,,0.05,Rainwise IP-100,2013-08-28 00:51:00,
2013-08-27 17:56:00,60.9,55.0,25.63,NE,45,0.0,4.0,81,0.00,,,0.05,Rainwise IP-100,2013-08-28 00:56:00,
2013-08-27 18:01:00,60.6,54.0,25.63,NNE,22,0.0,3.0,82,0.00,,,0.05,Rainwise IP-100,2013-08-28 01:01:00,
2013-08-27 18:06:00,60.3,54.0,25.63,NNE,22,0.0,2.0,83,0.00,,,0.05,Rainwise IP-100,2013-08-28 01:06:00,
2013-08-27 18:11:00,60.3,54.0,25.64,NNE,22,0.0,1.0,83,0.00,,,0.05,Rainwise IP-100,2013-08-28 01:11:00,
2013-08-27 18:16:00,60.1,55.0,25.64,NNE,22,0.0,1.0,84,0.06,,,0.06,Rainwise IP-100,2013-08-28 01:16:00,
2013-08-27 18:21:00,59.8,55.0,25.65,North,360,1.9,3.0,86,0.12,,,0.07,Rainwise IP-100,2013-08-28 01:21:00,
2013-08-27 18:26:00,59.4,56.0,25.64,NNW,337,2.3,2.3,88,0.12,,,0.08,Rainwise IP-100,2013-08-28 01:26:00,
2013-08-27 18:31:00,58.9,56.0,25.64,North,360,0.0,3.0,89,0.06,,,0.08,Rainwise IP-100,2013-08-28 01:31:00,
2013-08-27 18:36:00,58.5,56.0,25.64,NNE,22,0.0,2.0,91,0.00,,,0.08,Rainwise IP-100,2013-08-28 01:36:00,
2013-08-27 18:41:00,58.1,56.0,25.63,East,90,0.0,0.0,92,0.00,,,0.08,Rainwise IP-100,2013-08-28 01:41:00,
2013-08-27 18:46:00,57.8,56.0,25.63,East,90,0.0,0.0,93,0.00,,,0.08,Rainwise IP-100,2013-08-28 01:46:00,
2013-08-27 18:51:00,57.5,56.0,25.63,East,90,0.0,0.0,93,0.00,,,0.08,Rainwise IP-100,2013-08-28 01:51:00,
2013-08-27 18:56:00,57.3,55.0,25.63,East,90,0.0,0.0,94,0.00,,,0.08,Rainwise IP-100,2013-08-28 01:56:00,
2013-08-27 19:01:00,57.2,56.0,25.63,East,90,0.0,0.0,95,0.00,,,0.08,Rainwise IP-100,2013-08-28 02:01:00,
2013-08-27 19:06:00,56.9,56.0,25.63,East,90,0.0,0.0,95,0.00,,,0.08,Rainwise IP-100,2013-08-28 02:06:00,
2013-08-27 19:11:00,56.6,55.0,25.62,East,90,0.0,0.0,96,0.00,,,0.08,Rainwise IP-100,2013-08-28 02:11:00,
2013-08-27 19:16:00,56.4,55.0,25.62,East,90,0.0,0.0,96,0.00,,,0.08,Rainwise IP-100,2013-08-28 02:16:00,
2013-08-27 19:21:00,56.0,54.0,25.62,ESE,112,1.4,2.0,96,0.00,,,0.08,Rainwise IP-100,2013-08-28 02:21:00,
2013-08-27 19:26:00,55.4,54.0,25.62,ESE,112,0.0,3.0,96,0.00,,,0.08,Rainwise IP-100,2013-08-28 02:26:00,
2013-08-27 19:31:00,54.9,54.0,25.62,ESE,112,2.1,2.1,96,0.00,,,0.08,Rainwise IP-100,2013-08-28 02:31:00,
2013-08-27 19:36:00,54.6,53.0,25.62,ESE,112,0.0,3.0,96,0.00,,,0.08,Rainwise IP-100,2013-08-28 02:36:00,
2013-08-27 19:41:00,54.3,53.0,25.62,ENE,67,0.0,2.0,96,0.00,,,0.08,Rainwise IP-100,2013-08-28 02:41:00,
2013-08-27 19:46:00,54.1,53.0,25.62,SE,135,1.6,3.0,96,0.00,,,0.08,Rainwise IP-100,2013-08-28 02:46:00,
2013-08-27 19:51:00,53.8,52.0,25.62,SE,135,0.0,3.0,96,0.00,,,0.08,Rainwise IP-100,2013-08-28 02:51:00,
2013-08-27 19:56:00,53.5,52.0,25.62,SE,135,2.1,2.1,96,0.00,,,0.08,Rainwise IP-100,2013-08-28 02:56:00,
2013-08-27 20:01:00,53.2,51.0,25.62,SE,135,1.9,3.0,96,0.00,,,0.08,Rainwise IP-100,2013-08-28 03:01:00,
2013-08-27 20:06:00,52.9,51.0,25.61,SE,135,0.0,3.0,96,0.00,,,0.08,Rainwise IP-100,2013-08-28 03:06:00,
2013-08-27 20:11:00,52.7,52.0,25.61,SE,135,0.0,2.0,97,0.00,,,0.08,Rainwise IP-100,2013-08-28 03:11:00,
2013-08-27 20:16:00,52.5,52.0,25.61,SE,135,2.3,2.3,97,0.00,,,0.08,Rainwise IP-100,2013-08-28 03:16:00,
2013-08-27 20:21:00,52.3,51.0,25.61,SE,135,0.0,2.0,97,0.00,,,0.08,Rainwise IP-100,2013-08-28 03:21:00,
2013-08-27 20:26:00,52.2,51.0,25.61,SE,135,0.0,1.0,97,0.00,,,0.08,Rainwise IP-100,2013-08-28 03:26:00,
2013-08-27 20:31:00,52.0,51.0,25.61,SE,135,0.0,1.0,97,0.00,,,0.08,Rainwise IP-100,2013-08-28 03:31:00,
2013-08-27 20:36:00,51.9,51.0,25.61,SE,135,0.0,0.0,97,0.00,,,0.08,Rainwise IP-100,2013-08-28 03:36:00,
2013-08-27 20:41:00,51.7,51.0,25.61,SE,135,0.0,1.0,98,0.00,,,0.08,Rainwise IP-100,2013-08-28 03:41:00,
2013-08-27 20:46:00,51.6,51.0,25.61,SE,135,0.0,1.0,98,0.00,,,0.08,Rainwise IP-100,2013-08-28 03:46:00,
2013-08-27 20:51:00,51.5,51.0,25.61,SE,135,0.0,1.0,98,0.00,,,0.08,Rainwise IP-100,2013-08-28 03:51:00,
2013-08-27 20:56:00,51.4,50.0,25.61,SE,135,0.0,0.0,98,0.00,,,0.08,Rainwise IP-100,2013-08-28 03:56:00,
2013-08-27 21:01:00,51.4,50.0,25.61,SE,135,0.0,0.0,98,0.00,,,0.08,Rainwise IP-100,2013-08-28 04:01:00,
2013-08-27 21:06:00,51.4,51.0,25.61,SE,135,0.0,0.0,99,0.00,,,0.08,Rainwise IP-100,2013-08-28 04:06:00,
2013-08-27 21:11:00,51.3,51.0,25.61,SE,135,0.0,0.0,99,0.00,,,0.08,Rainwise IP-100,2013-08-28 04:11:00,
2013-08-27 21:16:00,51.3,51.0,25.61,SE,135,0.0,1.0,99,0.00,,,0.08,Rainwise IP-100,2013-08-28 04:16:00,
2013-08-27 21:21:00,51.2,51.0,25.61,SE,135,2.3,0.0,99,0.00,,,0.08,Rainwise IP-100,2013-08-28 04:21:00,
2013-08-27 21:26:00,51.3,51.0,25.61,SSE,157,0.0,2.0,99,0.00,,,0.08,Rainwise IP-100,2013-08-28 04:26:00,
2013-08-27 21:31:00,51.4,51.0,25.61,SSW,202,0.0,2.0,99,0.00,,,0.08,Rainwise IP-100,2013-08-28 04:31:00,
2013-08-27 21:36:00,51.5,52.0,25.62,SSW,202,0.0,1.0,99,0.00,,,0.08,Rainwise IP-100,2013-08-28 04:36:00,
2013-08-27 21:41:00,51.7,52.0,25.61,SE,135,0.0,2.0,99,0.00,,,0.08,Rainwise IP-100,2013-08-28 04:41:00,
2013-08-27 21:46:00,51.8,52.0,25.61,ESE,112,0.0,0.0,100,0.00,,,0.08,Rainwise IP-100,2013-08-28 04:46:00,
2013-08-27 21:51:00,51.8,52.0,25.61,ESE,112,0.0,0.0,100,0.00,,,0.08,Rainwise IP-100,2013-08-28 04:51:00,
2013-08-27 21:56:00,51.8,52.0,25.61,ESE,112,0.0,0.0,100,0.00,,,0.08,Rainwise IP-100,2013-08-28 04:56:00,
2013-08-27 22:01:00,51.8,52.0,25.62,ESE,112,0.0,0.0,100,0.00,,,0.08,Rainwise IP-100,2013-08-28 05:01:00,
2013-08-27 22:06:00,51.7,52.0,25.62,NNW,337,2.8,3.0,100,0.00,,,0.08,Rainwise IP-100,2013-08-28 05:06:00,
2013-08-27 22:11:00,51.6,52.0,25.62,NNW,337,0.0,3.0,100,0.00,,,0.08,Rainwise IP-100,2013-08-28 05:11:00,
2013-08-27 22:16:00,51.6,52.0,25.63,ESE,112,0.0,1.0,100,0.00,,,0.08,Rainwise IP-100,2013-08-28 05:16:00,
2013-08-27 22:21:00,51.6,52.0,25.63,ESE,112,0.0,1.0,100,0.00,,,0.08,Rainwise IP-100,2013-08-28 05:21:00,
2013-08-27 22:26:00,51.5,52.0,25.62,ESE,112,0.0,1.0,100,0.00,,,0.08,Rainwise IP-100,2013-08-28 05:26:00,
2013-08-27 22:31:00,51.5,52.0,25.63,ESE,112,0.0,1.0,100,0.00,,,0.08,Rainwise IP-100,2013-08-28 05:31:00,
2013-08-27 22:36:00,51.5,52.0,25.63,ESE,112,0.0,2.0,100,0.00,,,0.08,Rainwise IP-100,2013-08-28 05:36:00,
2013-08-27 22:41:00,51.6,52.0,25.62,ESE,112,1.4,1.4,100,0.00,,,0.08,Rainwise IP-100,2013-08-28 05:41:00,
2013-08-27 22:46:00,51.8,52.0,25.63,ESE,112,0.0,2.0,100,0.00,,,0.08,Rainwise IP-100,2013-08-28 05:46:00,
2013-08-27 22:51:00,51.8,52.0,25.63,SSW,202,0.0,2.0,100,0.00,,,0.08,Rainwise IP-100,2013-08-28 05:51:00,
2013-08-27 22:56:00,51.8,52.0,25.63,SE,135,0.0,2.0,100,0.00,,,0.08,Rainwise IP-100,2013-08-28 05:56:00,
2013-08-27 23:01:00,51.9,52.0,25.62,SE,135,0.0,2.0,100,0.00,,,0.08,Rainwise IP-100,2013-08-28 06:01:00,
2013-08-27 23:06:00,51.9,52.0,25.63,SE,135,1.2,2.0,100,0.00,,,0.08,Rainwise IP-100,2013-08-28 06:06:00,
2013-08-27 23:11:00,51.9,52.0,25.63,SE,135,0.0,2.0,99,0.00,,,0.08,Rainwise IP-100,2013-08-28 06:11:00,
2013-08-27 23:16:00,51.9,52.0,25.63,SE,135,0.0,0.0,99,0.00,,,0.08,Rainwise IP-100,2013-08-28 06:16:00,
2013-08-27 23:21:00,51.9,52.0,25.63,SE,135,0.0,1.0,99,0.00,,,0.08,Rainwise IP-100,2013-08-28 06:21:00,
2013-08-27 23:26:00,51.9,52.0,25.63,SE,135,0.0,1.0,99,0.00,,,0.08,Rainwise IP-100,2013-08-28 06:26:00,
2013-08-27 23:31:00,51.9,52.0,25.63,SE,135,0.0,1.0,99,0.00,,,0.08,Rainwise IP-100,2013-08-28 06:31:00,
2013-08-27 23:36:00,51.9,52.0,25.63,SE,135,0.0,1.0,99,0.00,,,0.08,Rainwise IP-100,2013-08-28 06:36:00,
2013-08-27 23:41:00,51.9,52.0,25.63,SE,135,0.0,1.0,100,0.00,,,0.08,Rainwise IP-100,2013-08-28 06:41:00,
2013-08-27 23:46:00,52.0,52.0,25.63,SE,135,1.6,1.6,100,0.00,,,0.08,Rainwise IP-100,2013-08-28 06:46:00,
2013-08-27 23:51:00,52.0,52.0,25.63,SE,135,0.0,2.0,100,0.00,,,0.08,Rainwise IP-100,2013-08-28 06:51:00,
2013-08-27 23:56:00,52.0,52.0,25.63,SE,135,0.0,0.0,100,0.00,,,0.08,Rainwise IP-100,2013-08-28 06:56:00,